Austin, TX

3:16 AM CDT on May 21, 2018 (GMT -0500)
Austin

Weather History for KATT - April, 2013

Change the Weather History Date:

Friday, April 26, 2013

  Actual Average Record
Temperature  
Mean Temperature 70 °F 72 °F  
Max Temperature 79 °F 82 °F 97 °F (1988)
Min Temperature 60 °F 62 °F 45 °F (1926)
Degree Days  
Heating Degree Days 0 0  
Month to date heating degree days 79 37  
Since 1 July heating degree days 1239 1536  
Cooling Degree Days 5 7  
Month to date cooling degree days 102 134  
Year to date cooling degree days 229 222  
Growing Degree Days 19 (Base 50)    
Moisture  
Dew Point 63 °F    
Average Humidity 74    
Maximum Humidity 100    
Minimum Humidity 48    
Precipitation  
Precipitation 0.03 in 0.09 in 3.00 in (1915)
Month to date precipitation 3.22 1.73  
Year to date precipitation 7.65 8.73  
Snow  
Snow 0.00 in - - ()
Month to date snowfall 0.0  
Since 1 July snowfall T  
Snow Depth 0.00 in    
Sea Level Pressure  
Sea Level Pressure 30.10 in    
Wind  
Wind Speed 5 mph (SSE)    
Max Wind Speed 13 mph    
Max Gust Speed 22 mph    
Visibility 6 miles    
Events Fog , Rain    
T = Trace of Precipitation, MM = Missing Value Source: NWS Daily Summary

Daily Weather History Graph

Daily Weather History Graph

Search for Another Location

Airport or City:

Astronomy

Apr. 26, 2013 Rise Set
Actual Time 6:52 AM CDT 8:05 PM CDT
Civil Twilight 6:26 AM CDT 8:31 PM CDT
Nautical Twilight 5:57 AM CDT 9:01 PM CDT
Astronomical Twilight 5:26 AM CDT 9:32 PM CDT
Moon 9:24 PM CDT (4/26) 7:24 AM CDT (4/26)
Length of Visible Light 14h 04m
Length of Day
13h 13m
Full, 99% of the Moon is Illuminated
Apr 26
Full
May 2
Last Quarter
May 9
New
May 17
First Quarter
May 24
Full

Hourly Weather History & Observations

Time (CDT) Temp. Dew Point Humidity Pressure Visibility Wind Dir Wind Speed Gust Speed Precip Events Conditions
12:51 AM 64.9 °F 44.1 °F 47% 30.17 in 10.0 mi South 8.1 mph - N/A   Overcast
1:51 AM 63.0 °F 51.1 °F 65% 30.15 in 10.0 mi SSE 8.1 mph - N/A   Overcast
2:51 AM 63.0 °F 54.0 °F 72% 30.14 in 10.0 mi Variable 6.9 mph - N/A   Overcast
3:17 AM 62.1 °F 55.0 °F 78% 30.14 in 9.0 mi Variable 5.8 mph - N/A   Overcast
3:37 AM 60.1 °F 57.0 °F 90% 30.13 in 2.5 mi South 4.6 mph - N/A   Overcast
3:51 AM 60.1 °F 57.9 °F 93% 30.11 in 2.0 mi SSE 4.6 mph - N/A   Overcast
4:04 AM 60.1 °F 57.9 °F 93% 30.12 in 2.5 mi Calm Calm - 0.00 in Rain Light Rain
4:46 AM 60.8 °F 59.0 °F 94% 30.11 in 3.0 mi SSE 3.5 mph - 0.01 in   Overcast
4:51 AM 60.1 °F 59.0 °F 96% 30.09 in 3.0 mi South 3.5 mph - 0.01 in   Overcast
5:00 AM 60.1 °F 59.0 °F 96% 30.11 in 2.5 mi South 3.5 mph - N/A   Overcast
5:14 AM 61.0 °F 59.0 °F 93% 30.10 in 3.0 mi Variable 3.5 mph - N/A   Overcast
5:32 AM 61.0 °F 59.0 °F 93% 30.10 in 2.0 mi South 4.6 mph - N/A   Overcast
5:49 AM 60.8 °F 59.0 °F 94% 30.10 in 1.5 mi Variable 3.5 mph - N/A   Overcast
5:51 AM 61.0 °F 59.0 °F 93% 30.09 in 1.5 mi Calm Calm - N/A   Overcast
6:51 AM 61.0 °F 60.1 °F 97% 30.09 in 1.0 mi Variable 4.6 mph - 0.00 in   Mist
7:44 AM 62.1 °F 61.0 °F 96% 30.13 in 0.5 mi Variable 3.5 mph - 0.00 in Fog Fog
7:51 AM 62.1 °F 61.0 °F 96% 30.12 in 0.5 mi South 3.5 mph - 0.00 in Fog Fog
8:09 AM 62.1 °F 61.0 °F 96% 30.13 in 0.2 mi Calm Calm - 0.01 in Fog , Rain Light Rain
8:20 AM 63.0 °F 62.1 °F 97% 30.13 in 0.5 mi Calm Calm - 0.01 in Fog Fog
8:51 AM 63.0 °F 62.1 °F 97% 30.12 in 0.5 mi Calm Calm - 0.01 in Fog Fog
9:49 AM 66.2 °F 64.4 °F 94% 30.14 in 1.5 mi Variable 3.5 mph - 0.00 in   Overcast
9:51 AM 66.0 °F 64.0 °F 93% 30.13 in 2.0 mi SSE 4.6 mph - 0.00 in   Overcast
10:08 AM 66.9 °F 64.9 °F 93% 30.15 in 2.5 mi Variable 3.5 mph - N/A   Overcast
10:44 AM 69.1 °F 66.9 °F 93% 30.14 in 3.0 mi South 6.9 mph - N/A   Overcast
10:51 AM 69.1 °F 66.9 °F 93% 30.12 in 4.0 mi SSE 6.9 mph - N/A   Overcast
11:05 AM 70.0 °F 66.9 °F 90% 30.13 in 5.0 mi South 8.1 mph - N/A   Overcast
11:33 AM 73.0 °F 66.9 °F 81% 30.13 in 8.0 mi South 10.4 mph 19.6 mph N/A   Overcast
11:51 AM 75.0 °F 66.9 °F 76% 30.11 in 9.0 mi Variable 5.8 mph - N/A   Overcast
12:51 PM 77.0 °F 66.0 °F 69% 30.09 in 10.0 mi SSE 9.2 mph - N/A   Overcast
1:51 PM 77.0 °F 66.0 °F 69% 30.08 in 10.0 mi Variable 6.9 mph 19.6 mph N/A   Overcast
2:51 PM 77.0 °F 66.0 °F 69% 30.06 in 10.0 mi South 8.1 mph - N/A   Overcast
3:51 PM 77.0 °F 66.0 °F 69% 30.06 in 10.0 mi South 5.8 mph - N/A   Overcast
4:51 PM 73.9 °F 69.1 °F 85% 30.03 in 6.0 mi South 3.5 mph - 0.01 in Rain Light Rain
5:51 PM 75.9 °F 69.1 °F 79% 30.03 in 10.0 mi Calm Calm - 0.00 in   Overcast
6:51 PM 78.1 °F 66.9 °F 68% 30.00 in 10.0 mi SSE 8.1 mph - N/A   Mostly Cloudy
7:51 PM 77.0 °F 66.0 °F 69% 30.01 in 10.0 mi South 3.5 mph - N/A   Mostly Cloudy
8:51 PM 75.9 °F 66.0 °F 71% 30.03 in 10.0 mi SSE 8.1 mph - N/A   Mostly Cloudy
9:21 PM 75.0 °F 66.0 °F 73% 30.06 in 10.0 mi South 8.1 mph 18.4 mph N/A   Mostly Cloudy
9:31 PM 73.9 °F 66.0 °F 76% 30.07 in 10.0 mi Variable 4.6 mph - N/A   Mostly Cloudy
9:40 PM 73.9 °F 66.0 °F 76% 30.07 in 10.0 mi Variable 5.8 mph - N/A   Mostly Cloudy
9:49 PM 73.4 °F 66.2 °F 78% 30.06 in 10.0 mi SSE 6.9 mph - N/A   Mostly Cloudy
9:51 PM 73.9 °F 66.0 °F 76% 30.04 in 10.0 mi SSE 6.9 mph - N/A   Mostly Cloudy
10:23 PM 73.0 °F 66.0 °F 79% 30.07 in 10.0 mi SSE 5.8 mph - N/A   Mostly Cloudy
10:51 PM 73.0 °F 64.9 °F 76% 30.07 in 10.0 mi Variable 4.6 mph - N/A   Overcast
11:51 PM 72.0 °F 66.0 °F 81% 30.07 in 10.0 mi South 3.5 mph - N/A   Overcast